BEIDOU 18 (C57)

Last updated on Mon Feb 13 2023 00:03:21 GMT+0000 (Coordinated Universal Time)

1 40748U 15037A 23043.21740647 -.00000076 00000+0 00000+0 0 9994 2 40748 55.7715 343.6613 0004962 353.7617 1.3820 1.86233776 51377

Satellite not in orbit

BEIDOU 18 (C57)